Zurück zum Katalog

DMSP 5D-2 F14 DEB

AktivSSO
NORAD 62938·DEBRIS·🇺🇸 United States

Gestartet Apr 4, 1997 von Vandenberg Space Force Base

Loading…

Nächste Überflüge (nächste 24 Stunden)

TLE

AktuellSource: Space-Track

Epoche: Sep 13, 2026, 16:54 UTC

1 62938U 97012J   26256.70464892  .00001706  00000-0  82741-3 0  9997
2 62938  98.8274 309.8117 0001238 135.5418 224.5857 14.19714819 89665

Verfolge DMSP 5D-2 F14 DEB in Echtzeit mit AllMySat

Download on the App Store